Regional Weather Roundup
Issued by NWS

Home | Current Version | Previous Version | Text Only | Print | Product List | Glossary Off
Versions: 1 2 3 4 5 6 7 8 9 10 11 12 13 14 15 16 17 18 19 20 21 22 23 24 25 26 27 28 29 30 31 32 33 34 35 36 37 38 39 40 41 42 43 44 45 46 47 48 49 50

000
ASUS43 KDTX 042301
RWRMI
MICHIGAN HOURLY REGIONAL WEATHER ROUNDUP
NATIONAL WEATHER SERVICE DETROIT/PONTIAC MI
700 PM EDT WED MAY 04 2016

NOTE: "FAIR" INDICATES FEW OR NO CLOUDS BELOW 12,000 FEET WITH NO
SIGNIFICANT WEATHER AND/OR OBSTRUCTION TO VISIBILITY.

MIZ047>049-052>055-059>063-066>070-074>076-081>083-050000-
SOUTHEAST LOWER MICHIGAN

CITY           SKY/WX    TMP DP  RH WIND       PRES   REMARKS
ADRIAN         CLOUDY    47  40  76 NW13      29.65R
ALMA           RAIN      46  45  96 N10G16    29.69R
ANN ARBOR      CLOUDY    49  43  80 W8        29.63R
BAD AXE        CLOUDY    53  43  70 N7        29.68R
CARO           RAIN      50  48  95 NE3       29.67R
DETROIT CITY   LGT RAIN  50  46  86 SE9       29.65R
DETROIT        LGT RAIN  50  45  83 SW7       29.64R
FLINT          LGT RAIN  53  47  79 E10       29.64R
GROSSE ILE     LGT RAIN  52  46  82 CALM      29.63R
HILLSDALE      CLOUDY    43  39  86 NW12      29.64R FOG
HOWELL         DRIZZLE   47  46  96 S5        29.62R

CITY           SKY/WX    TMP DP  RH WIND       PRES   REMARKS
JACKSON        CLOUDY    43  41  93 W9        29.62S
LAMBERTVILLE   CLOUDY    52  42  70 W6        29.64S
LANSING        LGT RAIN  48  45  89 N14G20    29.61R
LAPEER         DRIZZLE   51  47  85 E3        29.66R
MASON          CLOUDY    46  43  90 S3        29.61R
MONROE         CLOUDY    51  45  80 W8        29.63R
MT. CLEMENS    CLOUDY    51  50  96 SE7       29.64R
PONTIAC        LGT RAIN  50  46  86 SE8       29.63R
PORT HOPE        N/A     46  41  82 VRB6      29.69R
PORT HURON     CLOUDY    54  45  71 S5        29.66R
TRI CITIES     LGT RAIN  51  47  86 N10       29.69R FOG
MIDLAND        DRIZZLE   49  47  95 N10       29.68R
TROY           LGT RAIN  50  48  94 E7        29.66R
SAGINAW HB     RAIN      50  46  87 N12G18    29.68R
$$
MIZ043>046-050>051-056>058-064>065-071>073-077>080-050000-
SOUTHWEST LOWER MICHIGAN

CITY           SKY/WX    TMP DP  RH WIND       PRES   REMARKS
BATTLE CREEK   LGT RAIN  42  39  89 NW13G22   29.65S FOG
BENTON HARBOR  LGT RAIN  40  36  86 NW9G29    29.76S FOG     WCI  34
BIG RAPIDS     LGT RAIN  42  38  87 N13G20    29.73R
COLDWATER      CLOUDY    41  38  91 W12       29.66S FOG
FREMONT        LGT RAIN  41  40  95 N14G22    29.75R
HOLLAND        LGT RAIN N/A N/A N/A NW9G23    29.73R
GRAND RAPIDS   CLOUDY    44  40  85 N15G29    29.68R
IONIA          CLOUDY    45  43  93 N21G26    29.64R
KALAMAZOO      LGT RAIN  41  38  89 NW10      29.68S FOG
LUDINGTON      CLOUDY    42  35  75 N23G30    29.80S
MARSHALL       LGT RAIN  42  40  94 W12G18    29.63R
MOUNT PLEASANT CLOUDY    46  44  93 N12         N/A
MUSKEGON       LGT RAIN  42  37  82 N17G26    29.76R
$$
MIZ016>042-050000-
NORTHERN LOWER MICHIGAN

CITY           SKY/WX    TMP DP  RH WIND       PRES   REMARKS
ALPENA         CLOUDY    46  42  86 N13       29.77R
BEAVER ISLAND  PTSUNNY   47  34  60 N15G24    29.85R
BELLAIRE       CLOUDY    46  36  68 N12G20    29.80S
CADILLAC       RAIN      40  38  89 N14G24    29.75R WCI  33
CHARLEVOIX     CLOUDY    44  36  75 N13G18    29.85R
FRANKFORT      CLOUDY    43  35  74 N13G21    29.84R
GAYLORD        LGT RAIN  43  41  93 N8        29.78R
HARBOR SPRINGS CLOUDY    47  38  69 N9        29.81R
HOUGHTON LAKE  LGT RAIN  44  41  89 N15       29.75R
MANISTEE       CLOUDY    45  34  65 N13G18    29.82R
OSCODA         CLOUDY    54  44  68 N10       29.71R
PELLSTON       CLOUDY    47  39  74 N9        29.81R
ROGERS CITY    CLOUDY    42  40  93 NW9G16    29.80R
TRAVERSE CITY  CLOUDY    46  35  65 N8        29.80R
$$
MIZ007>008-015-050000-
EASTERN UPPER MICHIGAN

CITY           SKY/WX    TMP DP  RH WIND       PRES   REMARKS
KINROSS          N/A     45  37  76 N14       29.82R
MACKINAC ISLAN CLOUDY    46  36  67 N16       29.81R
NEWBERRY       SUNNY     44  32  62 N14G22    29.86R
S. S. MARIE    CLOUDY    48  39  71 N8        29.82R
MUNISING         N/A     39  33  79 NW16G25   29.93R WCI  30
$$
MIZ004>006-011>014-085-050000-
CENTRAL UPPER MICHIGAN

CITY           SKY/WX    TMP DP  RH WIND       PRES   REMARKS
MANISTIQUE     SUNNY     45  32  60 N15G29    29.86S
ESCANABA         N/A    N/A N/A N/A MISG        N/A
MENOMINEE      MOSUNNY   48  32  53 N17       29.90R
SAWYER-GWINN   CLOUDY    39  28  65 N21G28    29.94R WCI  29
$$
MIZ001>003-009>011-084-050000-
WESTERN UPPER MICHIGAN

CITY           SKY/WX    TMP DP  RH WIND       PRES   REMARKS
IRON MOUNTAIN  CLOUDY    43  31  62 N16G28    29.92R
HOUGHTON       MOSUNNY   47  31  53 N10G20    29.96R
COPPER HARBOR    N/A     43  35  73 N12       29.97R
IRONWOOD         N/A     48  30  49 NE9       29.95S
$$

ABBREVIATIONS USED IN REMARKS
   TC - TEMPERATURE IN CELSIUS
  WCI - WIND CHILL INDEX
   HX - HEAT INDEX
  VSB - VISIBILITY




USA.gov is the U.S. government's official web portal to all federal, state and local government web resources and services.